FW7345 Weather Reports


Display with metric or nautical units.
time (UTC)temp
F
wind
direction
speed
MPH
gust
MPH
rain 1hr
in
rain 24hr
in
rain mn
in
humidity
%
barometer
mb
20210916224617 82 2 2.0 6.0 0.00 0.00 0.00 77 1010.8
20210916223117 83 340 1.0 6.0 0.00 0.00 0.00 76 1010.6
20210916221618 84 355 2.0 6.0 0.00 0.00 0.00 73 1010.3
20210916220115 84 68 1.0 4.0 0.00 0.00 0.00 75 1010.4
20210916214704 84 56 1.0 4.0 0.00 0.00 0.00 74 1010.4
20210916213054 84 30 1.0 5.0 0.00 0.00 0.00 76 1010.5
20210916211601 85 27 2.0 6.0 0.00 0.00 0.00 72 1010.8
20210916210130 84 4 1.0 4.0 0.00 0.00 0.00 75 1010.8
20210916204633 83 354 2.0 4.0 0.00 0.00 0.00 76 1010.9
20210916203056 83 302 2.0 6.0 0.00 0.00 0.00 74 1011.2
20210916201607 83 3 2.0 5.0 0.00 0.00 0.00 73 1011.2
20210916200213 84 4 1.0 5.0 0.00 0.00 0.00 75 1011.3
20210916194616 84 14 3.0 6.0 0.00 0.00 0.00 73 1011.5
20210916193146 85 297 2.0 5.0 0.00 0.00 0.00 71 1011.7
20210916191647 83 291 2.0 5.0 0.00 0.00 0.00 75 1011.8
20210916190121 84 6 1.0 3.0 0.00 0.00 0.00 74 1011.9
20210916184700 85 8 2.0 4.0 0.00 0.00 0.00 72 1012.0
20210916183110 84 281 2.0 7.0 0.00 0.00 0.00 75 1012.3
20210916181635 84 13 2.0 4.0 0.00 0.00 0.00 73 1012.4
20210916180123 83 311 2.0 3.0 0.00 0.00 0.00 76 1012.4
20210916174610 82 262 2.0 4.0 0.00 0.00 0.00 73 1012.8
20210916173113 82 63 2.0 5.0 0.00 0.00 0.00 77 1012.8
20210916171551 81 13 1.0 4.0 0.00 0.00 0.00 77 1013.0
20210916170111 80 21 1.0 4.0 0.00 0.00 0.00 80 1013.1
20210916164613 81 6 1.0 5.0 0.00 0.00 0.00 77 1013.0
20210916163121 81 18 2.0 4.0 0.00 0.00 0.00 79 1013.1
20210916161611 81 1 2.0 5.0 0.00 0.00 0.00 78 1013.2
20210916160113 80 91 2.0 4.0 0.00 0.00 0.00 79 1013.3
20210916154620 80 70 1.0 4.0 0.00 0.00 0.00 80 1013.4
20210916153216 78 347 1.0 3.0 0.00 0.00 0.00 83 1013.2
20210916151556 77 18 1.0 5.0 0.00 0.00 0.00 85 1013.2
20210916150110 77 63 2.0 5.0 0.00 0.00 0.00 85 1013.0
20210916144738 77 353 2.0 3.0 0.00 0.00 0.00 85 1012.9
20210916143139 75 295 1.0 4.0 0.00 0.00 0.00 90 1012.8
20210916141556 74 84 2.0 4.0 0.00 0.00 0.00 91 1012.6
20210916140147 73 63 1.0 3.0 0.00 0.00 0.00 92 1012.5
20210916134613 72 0 0.0 0.0 0.00 0.00 0.00 95 1012.4
20210916133153 71 0 0.0 0.0 0.00 0.00 0.00 96 1012.2
20210916131601 70 0 0.0 0.0 0.00 0.00 0.00 97 1012.2
20210916130143 69 0 0.0 0.0 0.00 0.00 0.00 98 1011.9
20210916124619 69 0 0.0 0.0 0.00 0.00 0.00 98 1011.6
20210916123104 68 0 0.0 0.0 0.00 0.00 0.00 97 1011.4
20210916121600 68 0 0.0 0.0 0.00 0.00 0.00 97 1011.2
20210916120150 68 0 0.0 0.0 0.00 0.00 0.00 97 1011.1
20210916114602 68 0 0.0 0.0 0.00 0.00 0.00 97 1011.0
20210916113059 69 0 0.0 0.0 0.00 0.00 0.00 97 1011.0
20210916111613 69 0 0.0 0.0 0.00 0.00 0.00 97 1011.0
20210916110111 69 0 0.0 0.0 0.00 0.00 0.00 97 1010.9
20210916104632 69 0 0.0 0.0 0.00 0.00 0.00 97 1010.9
20210916103100 69 0 0.0 0.0 0.00 0.00 0.00 97 1010.7
20210916101727 69 0 0.0 0.0 0.00 0.00 0.00 97 1010.7
20210916100208 69 0 0.0 0.0 0.00 0.00 0.00 98 1010.8
20210916094614 69 0 0.0 0.0 0.00 0.00 0.00 98 1010.9
20210916093114 69 0 0.0 0.0 0.00 0.00 0.00 98 1010.9
20210916091605 69 0 0.0 0.0 0.00 0.00 0.00 97 1010.9
20210916090213 69 0 0.0 0.0 0.00 0.00 0.00 97 1010.8
20210916084551 69 0 0.0 0.0 0.00 0.00 0.00 97 1010.8
20210916083101 69 0 0.0 1.0 0.00 0.00 0.00 97 1010.8
20210916081559 69 0 0.0 0.0 0.00 0.00 0.00 97 1010.8
20210916080055 69 0 0.0 0.0 0.00 0.00 0.00 97 1010.8
20210916074655 70 0 0.0 0.0 0.00 0.00 0.00 97 1010.9
20210916073051 70 0 0.0 0.0 0.00 0.00 0.00 97 1011.0
20210916071631 70 0 0.0 0.0 0.00 0.00 0.00 97 1011.1
20210916070110 70 0 0.0 0.0 0.00 0.00 0.00 97 1011.3
20210916064615 70 0 0.0 0.0 0.00 0.00 0.00 97 1011.4
20210916063115 70 0 0.0 0.0 0.00 0.00 0.00 96 1011.5
20210916061711 71 0 0.0 0.0 0.00 0.00 0.00 96 1011.6
20210916060114 71 0 0.0 0.0 0.00 0.00 0.00 96 1011.7
20210916054615 72 0 0.0 0.0 0.00 0.00 0.00 96 1011.7
20210916053105 72 0 0.0 0.0 0.00 0.00 0.00 96 1011.6
20210916051635 72 0 0.0 0.0 0.00 0.00 0.00 96 1011.6
20210916050116 72 0 0.0 0.0 0.00 0.00 0.00 95 1011.6
20210916044609 72 0 0.0 0.0 0.00 0.00 0.00 95 1011.6
20210916043230 73 0 0.0 0.0 0.00 0.00 0.00 95 1011.6
20210916041600 73 0 0.0 0.0 0.00 0.00 0.00 95 1011.6
20210916040141 73 0 0.0 1.0 0.00 0.00 0.00 95 1011.6
20210916034631 74 0 0.0 0.0 0.00 0.00 0.00 95 1011.5
20210916033306 74 0 0.0 0.0 0.00 0.00 0.00 95 1011.5
20210916031724 75 0 0.0 0.0 0.00 0.00 0.00 95 1011.5
20210916030229 75 0 0.0 0.0 0.00 0.00 0.00 95 1011.5
20210916024615 75 0 0.0 0.0 0.00 0.00 0.00 95 1011.3
20210916023207 75 0 0.0 0.0 0.00 0.00 0.00 94 1011.2
20210916021630 75 0 0.0 0.0 0.00 0.00 0.00 94 1011.1
20210916020131 75 0 0.0 0.0 0.00 0.00 0.00 94 1010.7
20210916014650 75 0 0.0 0.0 0.00 0.00 0.00 94 1010.5
20210916013102 75 0 0.0 0.0 0.00 0.00 0.00 93 1010.5
20210916011600 75 0 0.0 0.0 0.00 0.00 0.00 93 1010.5
20210916010208 76 0 0.0 0.0 0.00 0.00 0.00 92 1010.3
20210916004634 77 0 0.0 0.0 0.00 0.00 0.00 89 1010.0
20210916003147 78 0 0.0 1.0 0.00 0.00 0.00 86 1009.8
20210916001635 79 25 0.0 2.0 0.00 0.00 0.00 83 1009.7
20210916000112 80 357 0.0 2.0 0.00 0.00 0.00 81 1009.4
20210915234640 80 46 2.0 4.0 0.00 0.00 0.00 80 1009.4
20210915233102 81 337 1.0 3.0 0.00 0.00 0.00 79 1009.4
20210915231658 82 330 1.0 6.0 0.00 0.00 0.00 79 1009.3
20210915230128 82 326 2.0 5.0 0.00 0.00 0.00 78 1009.1